When you browse on this site, cookies collect data to enhance your experience and personalize the content and advertising you see.
Visit our Privacy Policy to learn more. By continuing to use the site, you agree to this use of cookies and data.
  • En España
  • Lista de países
  • Para 7 días
  • Temperatura del agua
  • Mapa Satelital
  • El tiempo en el mapa
  • Informadores
  • user-avatar
    Iniciar sesión

    Tiempo cada hora Jeddah

    Hoy, 22 Mayo, Miércoles

    Tiempo Temperatura Precipitaciones Viento Presión Humedad
    00:00 +35°C° 0.1 mm 1 mps 756 mmHg 40%
    01:00 +35°C° 0 mm 2 mps 756 mmHg 40%
    02:00 +35°C° 0 mm 2 mps 756 mmHg 40%
    03:00 +35°C° 0 mm 3 mps 756 mmHg 41%
    04:00 +35°C° 0 mm 3 mps 756 mmHg 41%
    05:00 +34°C° 0 mm 3 mps 756 mmHg 40%
    06:00 +34°C° 0 mm 3 mps 756 mmHg 40%
    07:00 +35°C° 0 mm 3 mps 756 mmHg 35%
    08:00 +36°C° 0 mm 4 mps 756 mmHg 30%
    09:00 +38°C° 0 mm 4 mps 756 mmHg 25%
    10:00 +40°C° 0 mm 5 mps 756 mmHg 22%
    11:00 +41°C° 0 mm 5 mps 756 mmHg 19%
    12:00 +44°C° 0 mm 6 mps 756 mmHg 16%
    13:00 +42°C° 0 mm 6 mps 756 mmHg 18%
    14:00 +43°C° 0 mm 7 mps 755 mmHg 20%
    15:00 +43°C° 0 mm 8 mps 755 mmHg 21%
    16:00 +41°C° 0 mm 7 mps 755 mmHg 24%
    17:00 +40°C° 0 mm 6 mps 754 mmHg 26%
    18:00 +39°C° 0 mm 6 mps 754 mmHg 29%
    19:00 +37°C° 0 mm 5 mps 754 mmHg 29%
    20:00 +37°C° 0 mm 5 mps 755 mmHg 30%
    21:00 +36°C° 0 mm 4 mps 755 mmHg 31%
    22:00 +36°C° 0 mm 4 mps 755 mmHg 31%
    23:00 +36°C° 0 mm 3 mps 755 mmHg 31%

    Mañana, 23 Mayo, Jueves

    Tiempo Temperatura Precipitaciones Viento Presión Humedad
    00:00 +36°C° 0 mm 2 mps 756 mmHg 31%
    01:00 +36°C° 0 mm 2 mps 755 mmHg 32%
    02:00 +36°C° 0 mm 2 mps 755 mmHg 32%
    03:00 +36°C° 0 mm 2 mps 755 mmHg 32%
    04:00 +35°C° 0 mm 2 mps 755 mmHg 34%
    05:00 +35°C° 0 mm 3 mps 755 mmHg 35%
    06:00 +35°C° 0 mm 3 mps 755 mmHg 36%
    07:00 +36°C° 0 mm 2 mps 755 mmHg 33%
    08:00 +37°C° 0 mm 2 mps 755 mmHg 29%
    09:00 +39°C° 0 mm 1 mps 756 mmHg 26%
    10:00 +40°C° 0 mm 2 mps 756 mmHg 25%
    11:00 +42°C° 0 mm 3 mps 755 mmHg 23%
    12:00 +43°C° 0 mm 4 mps 755 mmHg 22%
    13:00 +42°C° 0 mm 5 mps 755 mmHg 23%
    14:00 +42°C° 0 mm 6 mps 754 mmHg 25%
    15:00 +42°C° 0 mm 6 mps 754 mmHg 26%
    16:00 +41°C° 0 mm 5 mps 754 mmHg 27%
    17:00 +40°C° 0 mm 4 mps 753 mmHg 28%
    18:00 +40°C° 0 mm 4 mps 753 mmHg 30%
    19:00 +38°C° 0 mm 3 mps 754 mmHg 31%
    20:00 +37°C° 0 mm 2 mps 754 mmHg 32%
    21:00 +36°C° 0 mm 1 mps 755 mmHg 33%
    22:00 +36°C° 0 mm 1 mps 755 mmHg 33%
    23:00 +35°C° 0 mm 1 mps 755 mmHg 33%

    Pasado mañana, 24 Mayo, Viernes

    Tiempo Temperatura Precipitaciones Viento Presión Humedad
    00:00 +35°C° 0 mm 1 mps 755 mmHg 33%
    01:00 +35°C° 0 mm 1 mps 755 mmHg 34%
    02:00 +35°C° 0 mm 1 mps 755 mmHg 35%
    03:00 +34°C° 0 mm 1 mps 754 mmHg 36%
    04:00 +34°C° 0 mm 1 mps 754 mmHg 37%
    05:00 +34°C° 0 mm 1 mps 755 mmHg 38%
    06:00 +33°C° 0 mm 1 mps 755 mmHg 39%
    07:00 +35°C° 0 mm 1 mps 755 mmHg 36%
    08:00 +36°C° 0 mm 1 mps 756 mmHg 33%
    09:00 +37°C° 0 mm 1 mps 756 mmHg 30%
    10:00 +39°C° 0 mm 2 mps 756 mmHg 29%
    11:00 +40°C° 0 mm 2 mps 756 mmHg 27%
    12:00 +42°C° 0 mm 3 mps 756 mmHg 25%
    13:00 +42°C° 0 mm 4 mps 755 mmHg 27%
    14:00 +42°C° 0 mm 6 mps 755 mmHg 28%
    15:00 +43°C° 0 mm 7 mps 754 mmHg 30%
    16:00 +41°C° 0 mm 6 mps 754 mmHg 34%
    17:00 +40°C° 0 mm 5 mps 754 mmHg 38%
    18:00 +38°C° 0 mm 4 mps 754 mmHg 42%
    19:00 +38°C° 0 mm 3 mps 755 mmHg 43%
    20:00 +37°C° 0 mm 2 mps 755 mmHg 44%
    21:00 +36°C° 0 mm 1 mps 756 mmHg 46%
    22:00 +37°C° 0 mm 2 mps 756 mmHg 46%
    23:00 +37°C° 0 mm 2 mps 755 mmHg 46%

    25 Mayo, Sábado

    Tiempo Temperatura Precipitaciones Viento Presión Humedad
    00:00 +37°C° 0 mm 2 mps 755 mmHg 45%
    01:00 +36°C° 0 mm 2 mps 755 mmHg 47%
    02:00 +35°C° 0 mm 1 mps 755 mmHg 48%
    03:00 +35°C° 0 mm 1 mps 754 mmHg 49%
    04:00 +35°C° 0 mm 1 mps 755 mmHg 49%
    05:00 +35°C° 0 mm 2 mps 755 mmHg 49%
    06:00 +35°C° 0 mm 2 mps 755 mmHg 49%
    07:00 +37°C° 0 mm 2 mps 755 mmHg 45%
    08:00 +38°C° 0 mm 2 mps 756 mmHg 41%
    09:00 +39°C° 0 mm 2 mps 756 mmHg 37%
    10:00 +40°C° 0 mm 3 mps 756 mmHg 34%
    11:00 +42°C° 0 mm 3 mps 756 mmHg 31%
    12:00 +43°C° 0 mm 4 mps 756 mmHg 28%
    13:00 +42°C° 0 mm 4 mps 755 mmHg 32%
    14:00 +41°C° 0 mm 5 mps 754 mmHg 35%
    15:00 +40°C° 0 mm 6 mps 754 mmHg 38%
    16:00 +40°C° 0 mm 5 mps 754 mmHg 37%
    17:00 +40°C° 0 mm 5 mps 754 mmHg 37%
    18:00 +40°C° 0 mm 5 mps 754 mmHg 36%
    19:00 +40°C° 0 mm 4 mps 755 mmHg 35%
    20:00 +40°C° 0 mm 4 mps 755 mmHg 35%
    21:00 +38°C° 0 mm 3 mps 755 mmHg 35%
    22:00 +38°C° 0 mm 3 mps 755 mmHg 36%
    23:00 +38°C° 0 mm 2 mps 755 mmHg 38%

    26 Mayo, Domingo

    Tiempo Temperatura Precipitaciones Viento Presión Humedad
    00:00 +36°C° 0 mm 1 mps 755 mmHg 39%
    01:00 +37°C° 0 mm 2 mps 754 mmHg 42%
    02:00 +36°C° 0 mm 3 mps 754 mmHg 45%
    03:00 +36°C° 0 mm 4 mps 753 mmHg 49%
    04:00 +35°C° 0 mm 3 mps 754 mmHg 49%
    05:00 +35°C° 0 mm 3 mps 754 mmHg 50%
    06:00 +35°C° 0 mm 2 mps 754 mmHg 51%
    07:00 +36°C° 0 mm 2 mps 754 mmHg 46%
    08:00 +37°C° 0 mm 2 mps 755 mmHg 41%
    09:00 +39°C° 0 mm 2 mps 755 mmHg 36%
    10:00 +40°C° 0 mm 2 mps 755 mmHg 33%
    11:00 +42°C° 0 mm 3 mps 754 mmHg 30%
    12:00 +43°C° 0 mm 4 mps 754 mmHg 27%
    13:00 +43°C° 0 mm 5 mps 754 mmHg 28%
    14:00 +44°C° 0 mm 6 mps 753 mmHg 30%
    15:00 +44°C° 0 mm 7 mps 753 mmHg 31%
    16:00 +42°C° 0 mm 6 mps 753 mmHg 32%
    17:00 +41°C° 0 mm 5 mps 753 mmHg 33%
    18:00 +40°C° 0 mm 4 mps 753 mmHg 34%
    19:00 +40°C° 0 mm 4 mps 753 mmHg 36%
    20:00 +38°C° 0 mm 4 mps 753 mmHg 37%
    21:00 +37°C° 0 mm 3 mps 754 mmHg 39%
    22:00 +37°C° 0 mm 3 mps 754 mmHg 39%
    23:00 +37°C° 0 mm 2 mps 754 mmHg 40%

    27 Mayo, Lunes

    Tiempo Temperatura Precipitaciones Viento Presión Humedad
    00:00 +36°C° 0 mm 1 mps 754 mmHg 40%
    01:00 +37°C° 0 mm 2 mps 753 mmHg 40%
    02:00 +36°C° 0 mm 2 mps 753 mmHg 40%
    03:00 +36°C° 0 mm 2 mps 753 mmHg 40%
    04:00 +36°C° 0 mm 2 mps 753 mmHg 40%
    05:00 +36°C° 0 mm 2 mps 753 mmHg 40%
    06:00 +36°C° 0 mm 2 mps 753 mmHg 40%
    07:00 +37°C° 0 mm 2 mps 753 mmHg 36%
    08:00 +37°C° 0 mm 1 mps 754 mmHg 32%
    09:00 +37°C° 0 mm 0 mps 754 mmHg 28%
    10:00 +41°C° 0 mm 2 mps 754 mmHg 26%
    11:00 +42°C° 0 mm 4 mps 754 mmHg 25%
    12:00 +44°C° 0 mm 6 mps 753 mmHg 23%
    13:00 +44°C° 0 mm 6 mps 753 mmHg 24%
    14:00 +44°C° 0 mm 6 mps 753 mmHg 25%
    15:00 +44°C° 0 mm 7 mps 752 mmHg 26%
    16:00 +42°C° 0 mm 6 mps 752 mmHg 29%
    17:00 +41°C° 0 mm 6 mps 752 mmHg 31%
    18:00 +40°C° 0 mm 5 mps 752 mmHg 33%
    19:00 +38°C° 0 mm 4 mps 752 mmHg 34%
    20:00 +38°C° 0 mm 3 mps 753 mmHg 35%
    21:00 +38°C° 0 mm 2 mps 753 mmHg 36%
    22:00 +37°C° 0 mm 2 mps 753 mmHg 36%
    23:00 +37°C° 0 mm 2 mps 753 mmHg 36%
    Mostrar más